Jackson, Tennessee, United States (38301)
Lat: 35.61N, Lon: 88.81W
Wx Zone: TNZ052
Local Info
Past Weather Observations for Wednesday, February 25, 2015

NOTE: This archive is for the closest National Weather Service station to Jackson. Information may differ from the station used for current weather conditions.

Click here for Long-term Archive

Time Weather Temperature Dewpoint Humidity Pressure Winds Precip Visibility
23:53
Clear
28°F / -2°C 25°F / -4°C 86% 29.86 in
(1011 mb)
Calm - 10SM
22:53
Mostly Cloudy
28°F / -2°C 25°F / -4°C 86% 29.86 in
(1011 mb)
Calm 0.00 in
(0.00 mm)
10SM
21:53
Overcast
32°F / 0°C 28°F / -2°C 87% 29.86 in
(1011 mb)
Calm - 10SM
20:53
Overcast
32°F / 0°C 28°F / -2°C 87% 29.86 in
(1011 mb)
WNW 4.6 mph
(WNW 7 kph)
- 10SM
19:53
Overcast
32°F / 0°C 28°F / -2°C 87% 29.83 in
(1010 mb)
Calm - 10SM
18:53
Overcast
34°F / 1°C 27°F / -3°C 75% 29.83 in
(1010 mb)
S 4.6 mph
(S 7 kph)
- 10SM
17:53
Overcast
34°F / 1°C 27°F / -3°C 75% 29.83 in
(1010 mb)
SW 4.6 mph
(SW 7 kph)
0.00 in
(0.00 mm)
9SM
16:53
Overcast
36°F / 2°C 25°F / -4°C 65% 29.83 in
(1010 mb)
SSE 4.6 mph
(SSE 7 kph)
- 10SM
15:53
Overcast
36°F / 2°C 25°F / -4°C 65% 29.83 in
(1010 mb)
ENE 4.6 mph
(ENE 7 kph)
- 10SM
14:53
Overcast
36°F / 2°C 25°F / -4°C 65% 29.86 in
(1011 mb)
Calm - 10SM
13:53
Overcast
36°F / 2°C 25°F / -4°C 65% 29.83 in
(1010 mb)
NE 5.8 mph
(NE 9 kph)
- 10SM
12:53
Overcast
36°F / 2°C 25°F / -4°C 65% 29.86 in
(1011 mb)
NE 5.8 mph
(NE 9 kph)
- 10SM
11:53
Clear
34°F / 1°C 25°F / -4°C 70% 29.92 in
(1013 mb)
Calm - 10SM
10:53
Clear
34°F / 1°C 25°F / -4°C 70% 29.92 in
(1013 mb)
NE 3.5 mph
(NE 6 kph)
- 10SM
09:53
Clear
30°F / -1°C 25°F / -4°C 80% 29.95 in
(1014 mb)
E 4.6 mph
(E 7 kph)
- 10SM
08:53
Clear
28°F / -2°C 25°F / -4°C 86% 29.98 in
(1015 mb)
Calm - 10SM
07:53
Clear
27°F / -3°C 21°F / -6°C 80% 30.01 in
(1016 mb)
Calm - 10SM
06:53
Clear
23°F / -5°C 19°F / -7°C 86% 30.01 in
(1016 mb)
Calm - 10SM
05:53
Clear
23°F / -5°C 19°F / -7°C 86% 29.98 in
(1015 mb)
Calm - 10SM
04:53
Clear
23°F / -5°C 19°F / -7°C 86% 29.98 in
(1015 mb)
Calm - 10SM
03:53
Clear
21°F / -6°C 19°F / -7°C 93% 29.98 in
(1015 mb)
Calm - 10SM
02:53
Clear
21°F / -6°C 19°F / -7°C 93% 29.98 in
(1015 mb)
Calm - 10SM
01:53
Clear
23°F / -5°C 18°F / -8°C 80% 30.01 in
(1016 mb)
SSE 4.6 mph
(SSE 7 kph)
- 10SM
00:53
Clear
21°F / -6°C 16°F / -9°C 80% 30.04 in
(1017 mb)
S 4.6 mph
(S 7 kph)
- 10SM
Time Weather Temperature Dewpoint Humidity Pressure Winds Precip Visibility


Weather for websites

WeatherForYou.com, LLC is not responsible for any damages or problems caused by this service. Current weather conditions are obtained from the closest station including government and personal stations which may have varying degrees of accuracy. Weather forecasts are derived from the NOAA NDFD. Like all things, this site belongs to Jesus Christ... He just trusts me to maintain it. If you have any questions or comments email webmaster@weatherforyou.com

Copyright © 2015, WeatherForYou.com LLC. All rights reserved.